Location: Godiavel Galaoual
(15.2485°N, 12.6604°W)
Time: 02:07:40
(UTC+00:00)

ISS - Pass Details

Date: 18 May 2021
Orbit: 419 x 422 km, 51.6° (Epoch: 24 June)

Event Time Altitude Azimuth Distance (km) Brightness Sun altitude
Rises 20:02:25 0° 267° (W) 2,367 1.3 -11.9°
Enters shadow 20:25:25 -32° 43° (NE) 7,587 2.6 -16.9°
Exits shadow 20:35:05 -50° 55° (NE) 10,383 3.3 -19.0°
Maximum altitude 04:24:13 29° 50° (NE) 851 -1.6 -26.3°
